MIDSTAR-1               
1 30773U 07006B   19265.25378359  .00001056  00000-0  26346-4 0  9995
2 30773  46.0654 179.3525 0004710 264.5742  95.4629 15.48987746703117
OE (NEXTSAT)            
1 30774U 07006C   19265.81322661  .00001118  00000-0  33625-4 0  9990
2 30774  46.0031 113.0635 0006852 230.1878 129.8424 15.42518043699328
STPSAT-1                
1 30775U 07006D   19265.63027737  .00001102  00000-0  42327-4 0  9999
2 30775  35.4290 330.8988 0003231 180.7072 179.3647 15.27155587694046
FALCONSAT-3             
1 30776U 07006E   19265.21391308  .00002114  00000-0  59378-4 0  9990
2 30776  35.4342 200.9079 0003791 258.9991 101.0309 15.36501291695384
CFESAT                  
1 30777U 07006F   19266.18193604  .00002276  00000-0  66048-4 0  9998
2 30777  35.4247 226.7844 0006192 275.5541  84.4479 15.35409377695179